Starlink 4078

operational
NORAD ID: 52689 Int'l Des: 2022-053 Owner: SPXS Country: US Constellation: starlink
LEOCIRCULAR

Starlink 4078について

説明を読み込み中...

リアルタイム位置

3D地球を読み込み中...

次回通過

高度履歴

Altitude vs Time

uPlot chart will show altitude changes over time

軌道要素

1 52689U 22053AK 26035.00108662 .00053487 00000-0 98709-3 0 9994
2 52689 53.2105 244.9134 0002806 150.9043 209.2123 15.48607196206782
Epoch: Feb 4, 2026 • Age: 14 hours

現在のステータス

高度 423.6 km
速度 7.66 km/s
衛星直下点 33.79°N, 75.11°W
打ち上げ日 May 18, 2022
運用期間 3.7 years
タイプ internet

技術仕様

分類 Payload
質量 297.00 kg
乾燥質量 275.00 kg
総質量 297.00 kg
長さ 0.20 m
直径 2.80 m
スパン 9.00 m
形状 Box + pan
製造者 SPXS
バスタイプ Starlink
フェーズステータス In Orbit
所有者/国 SPXS/US

大規模コンステレーション

Loading constellations...